This is the latest recevied weather packets stored in our database for station/object KD5GAT-51. If no packets are shown the sender has not sent any weather packets the latest 10 day(s).
| Time | Temp. | Humidity | Pressure | Rain* | Wind** | Luminosity | Snow |
|---|---|---|---|---|---|---|---|
| 1777783236 | 13.89° C | 100% | 1024.1 hPa | - | - | - | - |
| 1777782336 | 14.44° C | 100% | 1024.3 hPa | - | - | - | - |
| 1777781436 | 15° C | 91% | 1024.3 hPa | - | - | - | - |
| 1777780536 | 15° C | 85% | 1024.1 hPa | - | - | - | - |
| 1777779635 | 15.56° C | 77% | 1024.1 hPa | - | - | - | - |
| 1777778735 | 16.11° C | 73% | 1024 hPa | - | - | - | - |
| 1777777835 | 16.67° C | 67% | 1023.8 hPa | - | - | - | - |
| 1777776935 | 17.78° C | 62% | 1023.6 hPa | - | - | - | - |
| 1777776035 | 17.78° C | 59% | 1023.4 hPa | - | - | - | - |
| 1777775135 | 18.33° C | 56% | 1023.3 hPa | - | - | - | - |
| 1777774234 | 18.89° C | 52% | 1022.9 hPa | - | - | - | - |
| 1777773334 | 19.44° C | 49% | 1022.7 hPa | - | - | - | - |
| 1777772434 | 20° C | 46% | 1022.5 hPa | - | - | - | - |
| 1777771534 | 20.56° C | 44% | 1022.5 hPa | - | - | - | - |
| 1777770634 | 21.11° C | 42% | 1022.2 hPa | - | - | - | - |
| 1777769733 | 22.22° C | 38% | 1022 hPa | - | - | - | - |
| 1777768833 | 23.89° C | 35% | 1022 hPa | - | - | - | - |
| 1777767933 | 24.44° C | 33% | 1021.8 hPa | - | - | - | - |
| 1777767033 | 25.56° C | 32% | 1021.9 hPa | - | - | - | - |
| 1777766133 | 26.67° C | 31% | 1021.9 hPa | - | - | - | - |
| 1777765232 | 26.67° C | 30% | 1021.8 hPa | - | - | - | - |
| 1777764332 | 27.22° C | 29% | 1021.8 hPa | - | - | - | - |
| 1777763432 | 27.78° C | 28% | 1021.9 hPa | - | - | - | - |
| 1777762532 | 27.78° C | 28% | 1021.8 hPa | - | - | - | - |
| 1777761632 | 28.33° C | 27% | 1021.8 hPa | - | - | - | - |
* Rain since midnight (hover to see other rain measurements)
** Current wind speed in m/s (hover to see current wind gust speed)